Regional Weather Roundup
Issued by NWS Charleston, WV

Home | Current Version | Previous Version | Text Only | Print | Product List | Glossary Off
Versions: 1 2 3 4 5 6 7 8 9 10 11 12 13 14 15 16 17 18 19 20 21 22 23 24 25 26 27 28 29 30 31 32 33 34 35 36 37 38 39 40 41 42 43 44 45 46 47 48 49 50

000
ASUS41 KRLX 160110
RWRRLX
West Virginia Regional Weather Roundup
National Weather Service Charleston WV
800 PM EST SUN JAN 15 2017

Note: "fair" indicates few or no clouds below 12,000 feet with no
significant weather and/or obstructions to visibility.

WVZ003-160200-
Northern Panhandle of West Virginia

CITY           SKY/WX    TMP DP  RH WIND       PRES   REMARKS
WHEELING       CLEAR     31  22  69 CALM      30.36R
$$

WVZ009-160200-
Northwest West Virginia

CITY           SKY/WX    TMP DP  RH WIND       PRES   REMARKS
PARKERSBURG    CLOUDY    36  31  82 CALM      30.38S HAZE
$$

WVZ006-160200-
Western West Virginia

CITY           SKY/WX    TMP DP  RH WIND       PRES   REMARKS
HUNTINGTON     LGT RAIN  40  37  89 NE3       30.33S VSB 1
$$

WVZ015-160200-
West Central West Virginia

CITY           SKY/WX    TMP DP  RH WIND       PRES   REMARKS
CHARLESTON     LGT RAIN  40  38  93 E3        30.32F
$$

WVZ022-031-160200-
North Central West Virginia

CITY           SKY/WX    TMP DP  RH WIND       PRES   REMARKS
CLARKSBURG     CLOUDY    37  34  89 N5        30.34S
MORGANTOWN     CLOUDY    34  28  79 NW3       30.36R
$$

WVZ025-035-042-045-160200-
Southern West Virginia

CITY           SKY/WX    TMP DP  RH WIND       PRES   REMARKS
BECKLEY        LGT RAIN  42  41  96 CALM      30.30R FOG
LOGAN          CLOUDY    41  41 100 CALM      30.30F FOG
BLUEFIELD      FOG       47  46  97 CALM      30.29S VSB 1/4
LEWISBURG      LGT RAIN  43  42  98 CALM      30.30S
$$

WVZ047-160200-
Northern Mountains of West Virginia

CITY           SKY/WX    TMP DP  RH WIND       PRES   REMARKS
ELKINS         CLOUDY    40  36  86 CALM      30.31R
$$

WVZ052-160200-
Eastern Panhandle of West Virginia

CITY           SKY/WX    TMP DP  RH WIND       PRES   REMARKS
MARTINSBURG    PTCLDY    33  24  69 CALM      30.39R
PETERSBURG     CLOUDY    41  38  88 CALM      30.35S
$$




USA.gov is the U.S. government's official web portal to all federal, state and local government web resources and services.